This is the latest recevied weather packets stored in our database for station/object WV8BRW. If no packets are shown the sender has not sent any weather packets the latest 10 day(s).
| Time | Temp. | Humidity | Pressure | Rain* | Wind** | Luminosity | Snow |
|---|---|---|---|---|---|---|---|
| 1777484546 | 18.89° C | 99% | 1006.3 hPa | 0 mm | - | 377 W/m² | - |
| 1777484242 | 18.33° C | 99% | 1006.2 hPa | 3.05 mm | - | 687 W/m² | - |
| 1777483938 | 17.78° C | 99% | 1006.4 hPa | 4.83 mm | - | 856 W/m² | - |
| 1777483635 | 17.78° C | 99% | 1006.5 hPa | 1.78 mm | - | 74 W/m² | - |
| 1777483330 | 17.78° C | 99% | 1006.7 hPa | 0 mm | - | 42 W/m² | - |
| 1777483026 | 17.78° C | 99% | 1006.9 hPa | 0 mm | - | 48 W/m² | - |
| 1777482723 | 17.78° C | 99% | 1006.6 hPa | 0 mm | - | 169 W/m² | - |
| 1777482419 | 17.78° C | 99% | 1007.2 hPa | 0 mm | - | 70 W/m² | - |
| 1777482116 | 17.78° C | 99% | 1007.1 hPa | 0 mm | - | 147 W/m² | - |
| 1777481815 | 17.78° C | 99% | 1006.9 hPa | 1.27 mm | - | 288 W/m² | - |
| 1777481511 | 17.22° C | 99% | 1007.3 hPa | 4.32 mm | - | 339 W/m² | - |
| 1777481208 | 17.22° C | 99% | 1007.3 hPa | 8.89 mm | - | 227 W/m² | - |
| 1777480905 | 17.78° C | 99% | 1007.3 hPa | 9.65 mm | - | 109 W/m² | - |
| 1777480601 | 17.78° C | 97% | 1007.4 hPa | 4.83 mm | - | 105 W/m² | - |
| 1777480298 | 18.33° C | 96% | 1007.3 hPa | 1.27 mm | - | 95 W/m² | - |
| 1777479994 | 18.33° C | 96% | 1007.3 hPa | 0 mm | - | 176 W/m² | - |
| 1777479691 | 18.33° C | 95% | 1007.4 hPa | 0 mm | - | 192 W/m² | - |
| 1777479389 | 18.33° C | 94% | 1007.4 hPa | 0 mm | - | 145 W/m² | - |
| 1777479085 | 18.33° C | 94% | 1007.6 hPa | 0 mm | - | 108 W/m² | - |
| 1777478782 | 18.89° C | 94% | 1007.9 hPa | 0 mm | - | 119 W/m² | - |
| 1777478478 | 18.89° C | 91% | 1007.8 hPa | 1.78 mm | - | 98 W/m² | - |
| 1777478176 | 18.89° C | 91% | 1007.8 hPa | 1.78 mm | - | 113 W/m² | - |
| 1777477871 | 18.89° C | 90% | 1008 hPa | 0 mm | - | 210 W/m² | - |
| 1777477567 | 18.89° C | 90% | 1007.8 hPa | 0 mm | - | 170 W/m² | - |
| 1777477264 | 18.33° C | 90% | 1008 hPa | 0 mm | - | 96 W/m² | - |
* Rain latest hour (hover to see other rain measurements)
** Current wind speed in m/s (hover to see current wind gust speed)